Flag for Germany Weather past 2 weeks in Güstrow, Mecklenburg-Western Pomerania, Germany

Now
64 °F

Passing clouds.


Feels Like: 64 °F
Forecast: 62 / 80 °F
Wind: 7 mph from East

Location: Laage

Current Time: Aug 2, 2014 at 1:02:36 AM

Latest Report: Aug 2, 2014 at 12:20 AM


Visibility: N/A

Pressure: 29.92 "Hg

Humidity: 83%

Dew point: 59 °F

Location of GüstrowLocation

Historic Weather in Güstrow — Graph

°F

Güstrow temperature yesterday

Maximum temperature yesterday: 81 °F (at 4:20 PM)
Minimum temperature yesterday: 55 °F (at 5:20 AM)
Average temperature yesterday: 69 °F

Past Weeks' High & Low Weather Summary

 TemperatureHumidityPressure
High84 °F (Jul 19, 2:20 PM)100% (Jul 22, 3:20 AM)30.18 "Hg (Jul 22, 3:20 AM)
Low55 °F (Jul 18, 2:20 AM)35% (Jul 19, 3:20 PM)29.71 "Hg (Jul 30, 5:20 AM)
Average71 °F71%29.97 "Hg
* Reported Jul 17 11:20 PM — Aug 1 11:20 PM, Güstrow, Weather by CustomWeather, © 2014

Note: Actual official high and low records may vary slightly from our data, if they occured in-between our weather recording intervals... More about our weather records

Advertising

Güstrow weather history for previous 24 hours

 ConditionsComfort  
Time TempWeatherWind HumidityBarometerVisibility
11:20 PM
Aug 1
66 °FPartly cloudy.5 mph73%29.92 "HgN/A
10:20 PM68 °FPassing clouds.7 mph69%29.92 "HgN/A
9:20 PM72 °FScattered clouds.9 mph61%29.92 "HgN/A
8:20 PM75 °FPartly sunny.No wind61%29.89 "HgN/A
7:20 PM77 °FPartly sunny.5 mph47%29.89 "HgN/A
6:20 PM79 °FPartly sunny.8 mph42%29.89 "HgN/A
5:20 PM79 °FPartly sunny.10 mph39%29.92 "HgN/A
4:20 PM81 °FScattered clouds.10 mph39%29.92 "HgN/A
3:20 PM79 °FScattered clouds.10 mph39%29.92 "HgN/A
2:20 PM79 °FScattered clouds.9 mph39%29.92 "HgN/A
1:20 PM79 °FPassing clouds.10 mph42%29.95 "HgN/A
12:20 PM77 °FPassing clouds.9 mph44%29.95 "HgN/A
11:20 AM75 °FPassing clouds.8 mph47%29.95 "HgN/A
10:20 AM75 °FPassing clouds.6 mph50%29.98 "HgN/A
9:20 AM72 °FPassing clouds.6 mph61%29.98 "HgN/A
8:20 AM68 °FScattered clouds.3 mph69%29.95 "HgN/A
7:20 AM63 °FPartly sunny.2 mph83%29.95 "HgN/A
6:20 AM57 °FFog.2 mph94%29.95 "HgN/A
5:20 AM55 °FFog.No wind94%29.95 "HgN/A
4:20 AM57 °FPassing clouds.No wind88%29.98 "HgN/A
3:20 AM57 °FPassing clouds.No wind88%29.98 "HgN/A
2:20 AM57 °FPassing clouds.No wind88%29.98 "HgN/A
1:20 AM57 °FPassing clouds.No wind94%29.98 "HgN/A
Weather by CustomWeather, © 2014

See weather overviewHow to use our weather pages